Theta_e
319 320 320 320 320 320 321 321 321 321 321 321 321 322 322 322 321 318 313 316 318 334 326 313 312 310 310 309 310 308 298 301 304 307 308 316 316 322 329 329 331 334 332 334 336
318 320 320 320 320 320 320 321 321 321 321 321 321 321 321 321 316 313 326 339 338 339 313 312 309 309 304 307 308 304 300 303 313 315 309 316 320 323 325 327 330 332 336 336 337
318 319 320 320 321 320 320 321 321 321 321 320 320 320 320 319 314 315 341 340 341 334 312 310 310 308 305 305 306 306 304 310 312 315 319 320 321 324 321 320 327 327 331 334 335
318 319 320 320 320 320 320 321 321 321 321 320 319 320 320 318 305 311 338 337 337 318 313 311 309 300 300 300 307 303 309 310 309 312 313 318 323 322 322 323 330 331 333 332 329
318 319 320 319 319 320 320 320 320 320 319 318 320 321 316 312 314 328 341 338 317 312 311 311 307 302 299 302 306 304 307 310 313 310 311 321 320 319 321 328 330 331 331 329 327
318 319 319 319 319 319 319 319 318 318 319 319 322 319 315 305 319 326 321 315 313 310 308 309 309 309 304 303 303 308 308 309 310 308 308 309 318 322 325 328 327 329 327 328 327
318 318 318 319 319 319 319 318 317 318 318 319 322 319 312 309 320 322 319 316 316 313 310 313 312 308 306 304 307 308 302 306 307 307 309 311 316 317 326 327 326 327 328 330 330
318 318 318 318 319 319 319 318 317 318 319 321 321 317 310 320 318 317 315 315 316 316 314 314 314 309 306 307 308 304 304 298 302 306 309 307 300 318 326 325 324 327 330 331 331
318 317 317 318 318 318 317 316 318 320 319 324 315 313 310 319 315 319 318 314 315 315 313 318 311 306 307 301 298 300 294 296 302 306 307 305 307 320 324 325 324 326 329 331 331
317 317 317 317 317 317 315 316 321 320 320 324 321 311 316 313 314 318 320 318 312 310 308 307 305 300 299 297 291 295 295 297 299 305 305 302 313 317 323 324 324 329 329 330 331
317 317 316 316 316 315 313 310 306 310 311 302 309 315 314 316 319 317 318 313 309 306 300 304 297 295 299 302 303 302 300 299 302 306 304 301 309 312 318 322 323 322 328 328 331
317 317 316 316 316 315 312 308 306 304 299 308 309 310 313 313 312 316 315 304 303 299 302 299 296 303 305 305 303 302 299 299 303 306 302 302 303 312 313 322 322 323 327 328 331
316 315 315 316 315 315 313 312 310 308 298 306 312 310 310 311 309 311 309 305 302 300 301 298 302 307 305 303 301 299 298 299 300 305 306 304 301 309 314 316 324 327 328 329 332
315 315 315 313 313 314 312 318 311 309 296 305 309 311 311 309 306 313 311 306 302 300 302 302 306 305 303 302 301 295 305 306 304 302 295 303 292 302 311 312 316 325 326 327 332
315 315 314 313 311 311 315 319 313 308 290 309 307 313 310 305 307 308 312 307 302 302 303 300 303 303 302 303 305 300 306 303 304 301 299 301 294 298 310 308 312 314 319 324 331
314 315 313 314 313 316 319 317 309 295 291 305 308 305 303 305 306 308 309 310 308 304 305 304 308 307 305 307 306 307 304 302 302 297 292 298 297 297 304 308 312 315 318 321 329
314 313 311 315 309 316 317 310 294 290 306 304 304 305 303 302 304 305 305 302 298 293 295 303 303 307 309 303 306 302 296 291 290 289 290 300 299 300 309 313 314 314 316 321 321
312 311 313 316 318 317 313 299 289 299 302 309 308 306 303 303 303 304 303 299 304 300 296 294 294 303 309 305 301 300 298 294 288 289 292 302 298 303 313 316 315 317 316 320 321
309 314 313 315 319 318 305 291 293 300 305 303 306 299 300 304 303 302 301 300 302 301 295 295 298 310 310 311 307 301 297 304 297 296 294 297 304 308 312 313 313 312 317 317 317
309 309 311 317 318 315 299 294 298 304 305 303 300 302 297 301 301 300 302 305 304 304 304 300 296 307 309 311 307 303 306 297 298 291 291 298 300 302 308 308 310 312 313 314 317
308 308 317 321 316 307 295 296 300 305 306 302 303 301 301 300 301 301 304 309 307 305 304 301 298 300 306 304 301 301 300 300 299 298 293 294 298 309 309 308 311 311 314 315 315
311 303 317 319 303 303 298 301 302 304 307 307 307 304 301 302 302 303 304 308 313 308 300 303 301 296 300 309 313 306 302 302 297 296 299 300 297 311 311 312 315 314 317 317 318
306 308 318 315 297 299 303 303 304 304 304 304 304 305 305 301 299 306 307 313 315 309 302 302 297 292 297 303 307 305 307 306 303 302 298 296 298 313 313 310 315 314 317 320 325
307 303 308 310 306 302 301 301 302 307 305 307 304 305 302 301 302 302 306 312 314 316 320 310 300 299 295 301 305 303 306 307 305 299 300 300 302 306 311 311 312 312 321 324 328
307 305 309 302 303 304 304 303 301 304 305 305 302 302 300 297 300 300 307 308 313 315 312 308 299 303 305 307 307 306 306 306 303 304 300 302 304 307 309 311 312 313 323 325 326
304 305 308 303 307 305 303 300 302 306 309 306 303 306 303 299 301 301 304 307 307 311 305 309 300 300 301 306 307 304 306 306 306 307 308 305 303 311 312 313 315 315 323 322 324
315 315 308 303 304 302 302 305 304 307 311 311 309 306 304 308 309 309 309 308 311 306 304 304 301 300 294 304 303 299 304 304 305 309 307 302 307 311 312 315 314 316 322 322 324
Wind_Speed
16 17 17 18 19 19 20 19 19 20 19 19 18 16 14 14 15 3 6 10 8 8 4 6 7 9 7 6 8 5 1 10 10 10 7 14 18 8 16 16 8 5 15 11 8
16 16 16 17 18 19 19 20 20 20 19 18 17 15 13 12 5 8 11 6 10 11 4 8 7 9 3 6 5 6 3 7 7 6 6 13 22 18 19 18 19 14 11 10 8
16 17 17 18 19 20 20 21 21 20 19 18 16 13 11 9 4 5 10 8 8 7 5 6 10 7 6 6 8 7 10 14 16 8 13 19 16 7 15 13 17 18 13 11 9
16 18 18 19 20 21 21 21 21 21 20 18 16 12 9 4 3 3 6 8 8 5 5 6 7 3 4 7 11 5 11 11 2 5 5 14 15 12 14 10 19 15 15 11 8
16 18 20 21 21 22 22 22 22 20 19 17 14 9 4 2 10 6 7 7 7 4 7 7 9 5 7 7 8 6 10 3 7 4 9 9 15 12 13 19 18 14 12 9 8
16 18 19 21 23 23 22 22 21 19 17 15 11 2 2 5 4 12 9 5 6 5 7 8 9 9 7 6 6 6 9 6 7 1 4 5 14 16 17 21 20 16 11 9 10
17 19 20 22 24 24 23 23 22 19 15 11 5 5 5 13 12 11 10 6 7 8 9 10 9 5 7 9 9 8 8 4 5 4 4 5 8 15 22 21 20 14 12 9 10
17 19 21 23 26 26 24 24 24 18 13 7 3 5 8 8 8 9 10 9 10 10 10 11 9 5 3 7 11 10 5 2 4 4 5 8 6 10 20 22 19 18 15 13 10
17 19 22 25 26 28 27 29 22 12 7 3 3 3 9 3 6 9 12 10 9 9 7 10 5 4 8 5 6 4 0 5 7 9 5 6 5 14 17 20 18 17 14 13 10
17 19 22 26 29 27 28 26 4 3 4 7 7 5 8 8 7 10 8 8 6 5 7 5 2 3 6 1 6 4 5 7 5 9 8 6 15 18 18 19 14 11 8 12 10
17 20 22 26 29 29 17 8 8 3 3 11 15 9 18 11 8 4 7 5 6 6 7 8 3 6 11 11 12 7 9 9 8 9 7 8 12 13 15 15 19 17 18 12 12
17 20 23 27 31 29 5 5 7 7 13 13 20 19 21 16 7 9 8 6 5 7 7 5 7 12 14 15 12 11 9 11 8 9 6 8 6 10 12 23 23 21 17 14 10
16 19 21 26 31 11 12 10 9 10 5 16 12 14 16 10 10 7 13 8 7 8 9 8 10 16 15 14 9 7 9 9 5 4 4 3 3 8 6 9 17 21 20 16 19
16 18 20 27 9 9 7 15 9 5 4 8 7 8 11 9 10 8 10 10 5 11 13 9 16 13 15 12 6 6 8 7 5 0 5 7 5 5 8 10 8 17 14 14 16
16 17 17 9 7 5 9 16 11 4 5 7 6 6 8 11 5 10 10 7 11 10 6 10 9 10 11 10 10 9 7 8 10 6 6 5 4 9 15 10 8 11 11 15 19
16 17 16 8 4 13 17 16 6 1 7 4 8 8 6 8 13 5 9 7 7 8 12 8 7 12 8 11 8 7 6 8 8 2 2 9 8 7 7 10 8 8 10 12 18
17 19 13 6 6 10 13 8 2 4 7 7 5 12 10 8 10 10 8 6 6 2 6 10 11 14 16 11 7 6 2 4 4 4 7 9 4 9 7 15 14 12 11 12 10
19 23 10 10 8 11 5 4 4 9 10 17 6 5 5 3 10 9 9 7 6 6 3 6 7 10 13 10 11 10 9 6 7 3 7 5 5 7 6 8 7 13 11 9 9
19 5 7 10 13 8 2 3 6 5 6 13 13 6 6 9 7 8 10 11 11 11 6 2 7 9 13 14 14 13 7 13 2 4 3 2 9 8 7 7 5 7 10 10 9
7 6 9 11 10 6 3 6 7 10 15 18 6 9 9 8 7 5 11 11 9 13 9 5 7 7 11 10 9 8 7 2 3 5 5 3 3 8 7 7 4 12 13 13 11
3 5 9 12 6 4 6 7 9 16 15 11 4 9 12 6 9 11 7 4 12 15 12 8 4 10 8 4 8 4 5 1 6 5 5 2 5 10 3 4 8 8 14 12 10
3 5 1 6 3 3 8 7 7 18 18 2 1 5 7 7 7 5 7 8 22 10 13 13 5 5 11 17 10 9 7 5 6 8 2 5 7 3 12 8 10 8 10 8 8
4 6 7 2 4 7 10 19 20 20 18 4 3 4 6 7 3 5 7 15 23 4 10 8 3 3 11 4 4 3 3 4 0 6 6 5 4 5 10 2 17 11 9 8 13
4 4 4 3 4 7 9 14 13 19 15 2 4 2 6 7 2 6 6 9 20 14 22 4 5 8 6 3 3 3 8 8 6 4 2 1 9 7 4 11 7 10 14 15 16
3 5 4 2 5 8 8 11 18 16 7 7 1 5 6 4 7 6 6 10 16 15 18 9 5 7 9 8 2 1 7 10 7 5 6 5 8 4 6 9 6 10 17 18 16
3 4 6 10 9 9 5 13 16 13 8 3 2 5 4 6 7 6 5 4 2 10 12 12 8 3 5 5 4 8 9 10 9 14 14 5 4 6 7 11 11 15 14 15 16
4 5 3 7 6 5 6 6 8 9 2 4 5 17 3 4 3 3 7 5 8 3 5 5 9 9 5 5 6 7 11 14 6 2 11 5 3 6 8 7 9 11 13 13 15
Wind_Direction
349 344 339 334 329 326 325 323 319 320 319 319 320 322 321 318 306 189 242 226 194 176 172 277 229 254 263 253 249 251 312 276 261 126 170 116 95 91 94 77 90 90 140 158 161
347 339 334 329 326 323 321 319 317 318 319 319 319 321 318 323 278 234 247 171 141 152 202 234 241 242 253 263 253 171 201 255 275 106 136 119 114 110 105 102 95 93 114 144 176
343 337 331 328 325 321 319 317 316 318 317 317 322 319 316 316 292 237 154 159 147 164 284 305 293 271 234 265 243 248 232 258 272 91 135 120 120 114 119 122 133 139 149 176 194
340 336 330 327 322 320 317 315 315 318 316 319 321 314 316 262 12 141 162 147 157 175 263 273 280 270 236 248 253 238 252 267 139 66 105 140 138 136 130 147 135 143 167 178 148
337 334 330 325 321 318 315 314 314 313 312 316 316 311 284 247 249 148 154 173 153 160 245 256 280 254 224 249 278 258 261 300 101 42 85 132 142 145 123 126 133 150 161 161 153
333 331 326 322 318 317 315 314 310 307 308 313 309 297 245 258 133 142 170 182 190 206 252 259 256 255 266 285 294 293 301 275 96 168 81 86 126 118 142 137 141 159 168 169 163
332 329 325 323 317 317 316 313 308 302 302 302 297 248 259 243 144 163 183 196 228 201 236 251 262 324 323 297 266 289 305 213 151 212 160 128 106 128 148 144 146 162 168 161 177
331 327 325 323 319 318 318 313 304 297 291 270 206 261 253 267 196 165 197 223 221 229 236 281 329 302 305 301 307 301 256 101 254 223 153 111 206 153 145 145 156 169 172 166 196
331 327 327 325 322 321 321 314 304 287 225 183 198 230 269 278 212 208 172 210 213 246 268 282 12 296 324 282 332 293 253 264 285 206 160 136 144 154 149 154 166 173 174 172 189
333 331 329 326 323 323 323 305 272 328 206 210 258 309 276 239 199 214 194 224 196 211 266 271 277 260 319 11 240 201 265 270 239 208 188 189 157 169 165 166 151 112 191 180 194
335 334 332 328 322 321 338 342 352 3 236 262 271 257 300 275 134 177 166 214 249 194 213 242 176 229 244 247 243 210 223 242 249 210 170 224 162 182 174 132 139 172 201 177 191
337 335 334 329 319 318 291 316 19 281 310 271 261 256 261 270 225 191 165 183 231 210 231 283 219 243 234 244 246 253 254 260 279 194 141 211 209 178 173 160 167 183 188 182 174
336 336 336 332 315 316 328 278 347 0 276 292 237 231 232 241 248 208 156 201 232 222 237 209 239 228 249 261 242 253 240 249 247 199 177 172 320 183 199 160 174 178 188 182 175
333 334 339 335 336 340 294 337 331 358 301 269 210 209 213 219 245 236 177 165 239 212 240 228 239 243 244 249 249 265 268 281 287 63 179 152 245 214 189 191 175 177 184 180 180
326 330 334 324 288 293 291 313 315 31 320 189 134 127 163 171 234 217 180 187 224 245 186 251 268 279 252 232 237 242 271 280 276 221 153 230 116 259 177 195 182 172 172 162 178
319 322 338 321 224 254 287 303 326 349 252 267 147 171 147 201 240 246 160 181 212 265 276 255 308 294 249 266 253 236 271 285 271 141 209 224 157 249 205 185 179 190 181 177 180
313 310 312 289 244 315 324 312 350 223 310 346 321 151 175 185 218 237 171 202 189 243 299 305 288 290 296 275 270 234 183 292 351 352 218 234 188 220 197 180 177 180 186 183 158
316 308 253 223 231 252 285 331 248 262 255 317 318 337 329 207 195 213 159 199 200 251 275 235 292 248 252 231 217 233 186 177 197 199 259 280 240 270 168 125 168 187 190 146 140
312 290 269 247 225 222 253 251 229 208 269 340 334 351 298 281 256 204 178 190 194 185 184 290 266 307 311 300 206 250 218 221 193 335 357 244 329 39 130 137 119 98 117 123 88
327 286 259 225 231 195 173 246 275 298 311 309 340 325 324 327 355 321 191 196 205 179 152 219 287 264 284 311 252 171 226 223 354 197 228 158 77 297 303 177 173 109 105 105 97
279 284 278 170 172 154 214 234 263 263 265 272 326 309 326 359 349 341 319 310 192 185 165 173 195 281 342 263 234 288 261 186 152 152 195 101 238 219 2 41 27 83 121 125 126
261 275 221 128 98 204 237 245 252 280 286 335 161 277 305 324 319 332 332 354 344 175 181 191 190 259 247 289 278 238 224 182 136 287 145 116 259 217 132 104 86 121 123 130 133
268 273 284 196 205 231 254 245 253 266 266 234 148 272 291 285 9 305 6 352 350 290 167 178 249 324 317 304 325 9 341 94 75 98 285 127 224 226 168 154 140 134 127 116 88
276 277 236 196 223 263 298 293 277 249 256 322 261 171 331 312 329 281 17 346 354 29 350 150 174 185 223 225 154 13 315 8 126 146 209 96 62 24 77 100 83 85 111 92 82
243 269 13 285 235 237 226 273 294 304 197 187 200 193 241 304 347 316 38 354 340 16 351 354 210 200 263 287 81 276 295 324 5 282 159 189 123 107 104 104 76 97 107 94 90
297 334 349 298 291 295 228 246 270 302 21 17 130 242 270 226 226 290 101 56 84 337 355 344 291 196 291 311 267 254 292 314 324 35 10 9 53 134 192 129 80 52 108 110 111
332 324 267 285 298 285 274 290 247 286 144 151 77 310 168 27 353 305 158 135 140 109 1 304 9 316 247 217 256 241 319 295 335 66 145 128 81 11 31 76 108 97 121 129 116